Flag for Germany Weather past 2 weeks in Alfeld (Leine), Lower Saxony, Germany

43 °F


Feels Like: 38 °F
Forecast: 32 / 47 °F
Wind: 8 mph from East

Location: Hannover

Current Time: Oct 10, 2015 at 4:24:26 AM

Latest Report: Oct 10, 2015 at 3:50 AM

Visibility: 4 mi

Pressure: 30.21 "Hg

Humidity: 100%

Dew point: 43 °F

Location of Alfeld (Leine)Location

Historic Weather in Alfeld (Leine) — Graph


Alfeld (Leine) temperature yesterday

Maximum temperature yesterday: 55 °F (at 12:20 AM)
Minimum temperature yesterday: 48 °F (at 11:20 PM)
Average temperature yesterday: 53 °F

Past Weeks' High & Low Weather Summary

High66 °F (Oct 3, 4:50 PM)100% (Sep 25, 5:50 AM)30.69 "Hg (Sep 25, 5:50 AM)
Low36 °F (Oct 2, 3:50 AM)45% (Oct 2, 4:20 PM)29.68 "Hg (Oct 6, 8:50 AM)
Average53 °F88%30.22 "Hg
* Reported Sep 25 3:20 AM — Oct 10 3:20 AM, Alfeld (Leine), Weather by CustomWeather, © 2015

Note: Actual official high and low records may vary slightly from our data, if they occured in-between our weather recording intervals... More about our weather records


Alfeld (Leine) weather history for previous 24 hours

Time TempWeatherWind HumidityBarometerVisibility
3:20 AM
Sat, Oct 10
43 °FClear.8 mph100%30.21 "Hg4 mi
2:50 AM43 °FPassing clouds.8 mph100%30.21 "Hg4 mi
2:20 AM43 °FFog.7 mph100%30.21 "Hg3 mi
1:50 AM43 °FFog.6 mph100%30.21 "Hg3 mi
1:20 AM45 °FFog.7 mph100%30.21 "Hg3 mi
12:50 AM45 °FPassing clouds.6 mph100%30.21 "Hg4 mi
12:20 AM46 °FPassing clouds.7 mph93%30.21 "Hg5 mi
11:20 PM
Fri, Oct 9
48 °FPassing clouds.9 mph94%30.21 "Hg6 mi
10:50 PM50 °FPassing clouds.10 mph94%30.21 "Hg5 mi
10:20 PM50 °FLow clouds.10 mph94%30.21 "Hg5 mi
9:50 PM50 °FMostly cloudy.9 mph94%30.21 "Hg4 mi
9:20 PM50 °FOvercast.8 mph94%30.21 "Hg4 mi
8:50 PM50 °FFog.8 mph100%30.21 "Hg3 mi
8:20 PM50 °FFog.8 mph100%30.21 "Hg2 mi
7:50 PM50 °FFog.9 mph100%30.21 "Hg2 mi
7:20 PM50 °FFog.7 mph100%30.18 "Hg2 mi
6:50 PM50 °FFog.8 mph100%30.18 "Hg2 mi
6:20 PM52 °FFog.7 mph94%30.18 "Hg2 mi
5:50 PM52 °FFog.7 mph94%30.18 "Hg2 mi
5:20 PM52 °FFog.8 mph94%30.18 "Hg3 mi
4:20 PM52 °FLow clouds.7 mph100%30.18 "HgN/A
3:50 PM52 °FLow clouds.6 mph100%30.15 "HgN/A
3:20 PM52 °FLow clouds.6 mph100%30.15 "HgN/A
2:50 PM52 °FLow clouds.7 mph100%30.15 "HgN/A
2:20 PM52 °FLow clouds.6 mph100%30.18 "HgN/A
1:50 PM52 °FLow clouds.7 mph100%30.18 "HgN/A
1:20 PM52 °FLow clouds.7 mph100%30.18 "Hg5 mi
12:50 PM52 °FLow clouds.8 mph100%30.18 "Hg5 mi
12:20 PM52 °FFog.9 mph100%30.15 "Hg2 mi
11:50 AM54 °FFog.7 mph100%30.15 "Hg2 mi
11:20 AM54 °FFog.8 mph100%30.15 "Hg2 mi
10:50 AM54 °FFog.8 mph100%30.15 "Hg3 mi
10:20 AM54 °FDrizzle. Fog.7 mph100%30.15 "Hg2 mi
9:50 AM54 °FDrizzle. Fog.7 mph100%30.15 "Hg2 mi
9:20 AM55 °FDrizzle. Fog.7 mph100%30.15 "Hg1 mi
8:50 AM55 °FDrizzle. Fog.5 mph100%30.15 "Hg1 mi
8:20 AM55 °FDrizzle. Fog.7 mph100%30.12 "Hg1 mi
7:50 AM55 °FDrizzle. Fog.6 mph100%30.12 "Hg2 mi
7:20 AM55 °FLow clouds.5 mph100%30.12 "Hg4 mi
6:50 AM55 °FLow clouds.5 mph100%30.12 "Hg4 mi
6:20 AM55 °FFog.5 mph100%30.12 "Hg2 mi
5:20 AM55 °FFog.6 mph100%30.12 "Hg2 mi
4:50 AM55 °FDrizzle. Fog.6 mph100%30.12 "Hg2 mi
4:20 AM55 °FLight rain. Fog.3 mph100%30.12 "Hg2 mi
Weather by CustomWeather, © 2015

See weather overviewHow to use our weather pages